Simultaneous Nadir Overpasses (SNOs) Predictions

Prediction of SNOs between METOP-A and TERRA Satellite Orbit:

Table of predicted SNOs for the next 14.0 days since TLE Epoch: 1/11/2020
Index Date (METOP-A) Time (METOP-A) Lat,Lon (METOP-A) SZA (METOP-A ) Date (TERRA) Time (TERRA) Lat,Lon (TERRA) SZA (TERRA ) Distance(km) Time Diff (sec)
1 01/12/2020 19:00:53 -81.44, 124.61 74.28 01/12/2020 19:01:54 -81.44, 124.46 74.27 2.52 61
2 01/12/2020 19:51:34 81.44, -68.20 105.70 01/12/2020 19:51:21 81.43, -68.08 105.71 2.15 13
3 01/15/2020 14:35:15 -81.44,-169.10 74.81 01/15/2020 14:36:08 -81.44,-169.09 74.78 0.37 53
4 01/15/2020 15:25:55 81.43, -1.53 105.22 01/15/2020 15:25:35 81.43, -1.65 105.19 2.08 20
5 01/18/2020 10:09:37 -81.43,-102.43 75.35 01/18/2020 10:10:23 -81.44,-102.57 75.33 2.75 46
6 01/18/2020 11:00:18 81.44, 64.73 104.64 01/18/2020 10:59:50 81.43, 64.83 104.63 1.65 28
7 01/21/2020 05:44:01 -81.44, -36.57 76.01 01/21/2020 05:44:39 -81.43, -36.40 75.98 2.97 38
8 01/21/2020 06:34:40 81.43, 131.36 104.04 01/21/2020 06:34:05 81.44, 131.36 104.03 0.76 35
9 01/24/2020 01:18:22 -81.44, 30.07 76.65 01/24/2020 01:18:53 -81.44, 30.22 76.61 2.57 31




NCC Satellite Simultaneous Nadir Overpasses (SNOs) Prediction Service
